Date String (YYYY-MM-DD hh:mm:ss) UTC,Instrument flags,Ambient pressure (hPa),Sample flow (lpm),Bypass flow (lpm),Sample temperature (°C),Ambient temperature (°C),ASC tube jacket temperature (°C),LED temperature (°C),Box temperature (°C),Sample RH (%),Span deviation,Mass concentration (μg/m³),Mass concentration (μg/m³),Mass concentration (μg/m³)
DateTimeUTC,F1_M11,P_M11,Q1_M11,Q2_M11,T1_M11,T2_M11,T3_M11,T4_M11,T5_M11,U1_M11,ZSPAN_M11,X2_M11,X0_M11,X1_M11
2022-04-11 18:00:00,,0814.2,5.01,0.00,24.1,23.4,00.0,32.9,26.0,09.1,0000.0,0005.94,0016.51,0003.58
2022-04-11 18:01:00,,0814.0,5.00,0.00,24.1,23.4,00.0,32.9,26.0,08.9,0000.0,0005.91,0015.81,0003.58
2022-04-11 18:02:00,,0814.0,5.00,0.00,24.2,23.4,00.0,32.9,26.0,08.8,0000.0,0005.89,0015.31,0003.58
2022-04-11 18:03:00,,0813.9,5.00,0.00,24.2,23.4,00.0,32.9,26.1,08.8,0000.0,0005.95,0015.50,0003.59
2022-04-11 18:04:00,,0814.2,5.00,0.00,24.2,23.4,00.0,33.0,26.1,09.1,0000.0,0005.97,0015.62,0003.60
2022-04-11 18:05:00,,0814.2,5.02,0.00,24.2,23.5,00.0,33.0,26.1,09.1,0000.0,0005.99,0016.00,0003.62
2022-04-11 18:06:00,,0814.0,4.99,0.00,24.2,23.5,00.0,33.0,26.1,08.9,0000.0,0006.06,0016.55,0003.63
2022-04-11 18:07:00,,0814.0,5.00,0.00,24.3,23.5,00.0,33.0,26.2,08.9,0000.0,0006.03,0017.21,0003.64
2022-04-11 18:08:00,,0814.0,5.00,0.00,24.3,23.6,00.0,33.0,26.2,09.0,0000.0,0005.93,0016.88,0003.63
2022-04-11 18:09:00,,0813.9,5.03,0.00,24.3,23.6,00.0,33.1,26.3,09.4,0000.0,0006.02,0016.99,0003.63
2022-04-11 18:10:00,,0813.8,4.99,0.00,24.3,23.6,00.0,33.1,26.3,09.3,0000.0,0006.08,0017.62,0003.62
2022-04-11 18:11:00,,0813.7,4.98,0.00,24.4,23.6,00.0,33.1,26.3,09.3,0000.0,0006.11,0017.69,0003.61
2022-04-11 18:12:00,,0813.8,5.00,0.00,24.4,23.6,00.0,33.1,26.3,09.0,0000.0,0006.11,0017.18,0003.62
2022-04-11 18:13:00,,0813.7,5.02,0.00,24.3,23.6,00.0,33.1,26.3,08.8,0000.0,0006.20,0017.74,0003.62
2022-04-11 18:14:00,,0813.7,5.00,0.00,24.3,23.5,00.0,33.2,26.3,08.7,0000.0,0006.14,0017.98,0003.63
2022-04-11 18:15:00,,0813.9,4.99,0.00,24.4,23.6,00.0,33.2,26.3,09.0,0000.0,0006.16,0018.35,0003.63
2022-04-11 18:16:00,,0814.0,5.02,0.00,24.4,23.5,00.0,33.2,26.2,08.9,0000.0,0006.24,0018.35,0003.64
2022-04-11 18:17:00,,0813.9,4.99,0.00,24.3,23.5,00.0,33.2,26.1,08.7,0000.0,0006.23,0018.46,0003.64
2022-04-11 18:18:00,,0813.7,5.00,0.00,24.3,23.5,00.0,33.2,26.1,09.1,0000.0,0006.22,0018.23,0003.64
2022-04-11 18:19:00,,0813.6,5.01,0.00,24.3,23.5,00.0,33.2,26.1,09.0,0000.0,0006.25,0019.43,0003.64
2022-04-11 18:20:00,,0813.7,4.99,0.00,24.3,23.5,00.0,33.2,26.1,09.1,0000.0,0006.22,0020.99,0003.63
2022-04-11 18:21:00,,0813.6,5.02,0.00,24.3,23.5,00.0,33.2,26.1,09.2,0000.0,0006.15,0022.55,0003.64
2022-04-11 18:22:00,,0813.5,5.00,0.00,24.3,23.5,00.0,33.2,26.2,09.0,0000.0,0006.12,0022.97,0003.65
2022-04-11 18:23:00,,0813.5,4.99,0.00,24.3,23.6,00.0,33.2,26.2,09.2,0000.0,0006.15,0023.67,0003.65
2022-04-11 18:24:00,,0813.5,5.00,0.00,24.4,23.6,00.0,33.2,26.2,09.3,0000.0,0006.12,0023.79,0003.65
2022-04-11 18:25:00,,0813.5,4.99,0.00,24.4,23.6,00.0,33.2,26.2,08.9,0000.0,0006.12,0024.34,0003.66
2022-04-11 18:26:00,,0813.4,5.00,0.00,24.4,23.6,00.0,33.2,26.2,09.3,0000.0,0006.14,0025.18,0003.66
2022-04-11 18:27:00,,0813.4,5.01,0.00,24.4,23.6,00.0,33.3,26.3,09.3,0000.0,0006.03,0024.88,0003.64
2022-04-11 18:28:00,,0813.4,4.99,0.00,24.4,23.6,00.0,33.3,26.3,09.2,0000.0,0005.91,0024.35,0003.64
2022-04-11 18:29:00,,0813.4,5.00,0.00,24.4,23.7,00.0,33.3,26.3,09.6,0000.0,0005.87,0024.36,0003.63
2022-04-11 18:30:00,,0813.3,5.01,0.00,24.4,23.7,00.0,33.3,26.3,09.1,0000.0,0005.87,0023.94,0003.62
2022-04-11 18:31:00,,0813.3,4.99,0.00,24.4,23.7,00.0,33.3,26.3,09.2,0000.0,0005.89,0022.82,0003.62
2022-04-11 18:32:00,,0813.3,4.99,0.00,24.4,23.7,00.0,33.3,26.3,09.4,0000.0,0005.92,0020.74,0003.62
2022-04-11 18:33:00,,0813.3,5.00,0.00,24.4,23.7,00.0,33.3,26.3,08.9,0000.0,0006.00,0020.13,0003.62
2022-04-11 18:34:00,,0813.1,5.00,0.00,24.4,23.7,00.0,33.3,26.3,08.7,0000.0,0006.04,0019.83,0003.63
2022-04-11 18:35:00,,0813.1,5.00,0.00,24.4,23.7,00.0,33.3,26.3,08.8,0000.0,0005.99,0019.96,0003.64
2022-04-11 18:36:00,,0813.1,5.00,0.00,24.5,23.8,00.0,33.3,26.3,09.1,0000.0,0005.94,0018.90,0003.63
2022-04-11 18:37:00,,0813.1,4.99,0.00,24.5,23.8,00.0,33.3,26.4,09.0,0000.0,0005.97,0018.32,0003.63
2022-04-11 18:38:00,,0813.2,5.01,0.00,24.5,23.8,00.0,33.3,26.4,09.3,0000.0,0006.04,0018.54,0003.63
2022-04-11 18:39:00,,0813.1,4.99,0.00,24.6,23.8,00.0,33.4,26.4,09.2,0000.0,0006.12,0019.11,0003.63
2022-04-11 18:40:00,,0813.0,4.99,0.00,24.6,23.9,00.0,33.4,26.5,09.0,0000.0,0006.18,0018.99,0003.62
2022-04-11 18:41:00,,0813.1,5.01,0.00,24.6,23.9,00.0,33.4,26.5,09.0,0000.0,0006.21,0019.32,0003.61
2022-04-11 18:42:00,,0813.1,4.99,0.00,24.6,23.9,00.0,33.4,26.5,09.2,0000.0,0006.17,0019.31,0003.60
2022-04-11 18:43:00,,0813.1,4.99,0.00,24.6,23.9,00.0,33.4,26.5,09.1,0000.0,0006.20,0019.52,0003.59
2022-04-11 18:44:00,,0812.9,5.02,0.00,24.6,23.9,00.0,33.4,26.5,09.1,0000.0,0006.16,0019.29,0003.58
2022-04-11 18:45:00,,0812.9,4.99,0.00,24.6,23.9,00.0,33.5,26.5,08.9,0000.0,0006.14,0019.65,0003.55
2022-04-11 18:46:00,,0812.8,4.99,0.00,24.6,23.9,00.0,33.5,26.5,08.6,0000.0,0006.19,0019.97,0003.53
2022-04-11 18:47:00,,0812.8,5.01,0.00,24.6,23.9,00.0,33.5,26.5,08.7,0000.0,0006.24,0021.31,0003.53
2022-04-11 18:48:00,,0812.8,5.01,0.00,24.6,23.9,00.0,33.5,26.6,08.6,0000.0,0006.21,0021.74,0003.51
2022-04-11 18:49:00,,0812.7,4.99,0.00,24.7,23.9,00.0,33.5,26.6,08.9,0000.0,0006.15,0021.74,0003.50
2022-04-11 18:50:00,,0812.7,4.99,0.00,24.7,23.9,00.0,33.5,26.5,09.0,0000.0,0006.18,0021.89,0003.50
2022-04-11 18:51:00,,0812.7,5.00,0.00,24.7,23.9,00.0,33.5,26.6,09.0,0000.0,0006.16,0022.35,0003.51
2022-04-11 18:52:00,,0812.8,5.00,0.00,24.7,24.0,00.0,33.5,26.5,08.9,0000.0,0006.16,0021.95,0003.51
2022-04-11 18:53:00,,0812.7,4.99,0.00,24.7,23.9,00.0,33.5,26.6,08.6,0000.0,0006.20,0022.80,0003.52
2022-04-11 18:54:00,,0812.7,5.00,0.00,24.7,23.9,00.0,33.5,26.5,09.1,0000.0,0006.16,0023.55,0003.51
2022-04-11 18:55:00,,0812.7,5.00,0.00,24.7,24.0,00.0,33.6,26.6,09.1,0000.0,0006.13,0023.45,0003.52
2022-04-11 18:56:00,,0812.6,4.99,0.00,24.7,24.0,00.0,33.6,26.6,08.9,0000.0,0006.13,0022.66,0003.54
2022-04-11 18:57:00,,0812.6,5.01,0.00,24.7,24.0,00.0,33.6,26.6,09.1,0000.0,0006.21,0022.12,0003.55
2022-04-11 18:58:00,,0812.6,5.00,0.00,24.7,24.0,00.0,33.6,26.6,08.9,0000.0,0006.27,0021.57,0003.57
2022-04-11 18:59:00,,0812.6,4.99,0.00,24.7,24.0,00.0,33.6,26.6,08.7,0000.0,0006.38,0021.27,0003.57
